Follow iAlert.com on twitter @ialertcom
Search For Active Alerts in Your Area  
  Hi Guest:  [ Sign-up / Services ] [ Login ]

Current weather by "City, St" or "zip code"  
 

Advertise Here

Current Conditions: Cherry Capital Airport, MI

Light Snow


24.0 F

Last Updated on Jan 23 2018, 11:53 am EST
Humidity: 77%
Wind Speed: N 16.1 G 25.3 mph
Barometer 29.66 in
Dewpoint: 18.0 F
Visibility: 6.00 mi
Precip: Trace
Heat Index: NA
Wind Chill: 11 F
Current conditions at:

Cherry Capital Airport, MI (KTVC)

Lat: 44.73 Lon: 85.567

Local Radar Image active severe weather and emergency alerts image image weather storm and storm spotter reports image weather observation monitoring service image
Local
Radar
Active
Alerts
Storm Reports Obs
Monitoring

iAlert Weather and Emergency Alert Notification Services:


ialert severe weather and emergency alerts by text message and email ialert daily weather forecast by email and text message service ialert real-time weather-observation monitoring and alert notification service ialert storm report monitoring alert notification

Observation History for Cherry Capital Airport, MI


Time Wind
(mph)
Vis
(mi)
Weather Precip (in) Temperature (F) Relative
Humidity
Wind
Chill
(°F)
Heat
Index
(°F)
Pressure
Air Dwpt altimeter
(in)
sea level
(mb)
11:53 am EST N 16.1 G 25.3 6.00 Light Snow Trace 24.0 18.0 77% 11 NA 29.66 1005.1
10:53 am EST N 13.8 G 21.9 2.00 Light Snow Fog/Mist Trace 24.0 19.9 84% 12 NA 29.63 1004.2
9:53 am EST N 17.3 G 25.3 8.00 Light Snow Trace 25.0 21.0 85% 12 NA 29.59 1002.6
8:53 am EST N 13.8 G 24.2 3.00 Light Snow Fog/Mist Trace 27.0 23.0 85% 16 NA 29.56 1001.6
7:53 am EST N 12.7 G 21.9 1.00 Light Snow Fog/Mist 00.02 28.0 26.1 92% 17 NA 29.52 1000.3
6:53 am EST N 15.0 G 20.7 9.00 Light Freezing Drizzle Snow Trace 29.0 26.1 89% 18 NA 29.49 999.4
5:53 am EST N 15.0 G 21.9 4.00 Light Freezing Rain Fog/Mist Trace 31.0 28.9 92% 20 NA 29.47 998.5
4:53 am EST N 10.4 6.00 Fog/Mist -- 33.0 32.0 96% 25 NA 29.45 997.8
3:53 am EST NE 12.7 6.00 Fog/Mist -- 34.0 33.1 97% 25 NA 29.42 996.8
2:53 am EST NE 10.4 2.50 Fog/Mist Trace 35.0 34.0 96% 27 NA 29.43 997.2
1:53 am EST N 5.8 2.50 Fog/Mist Trace 35.0 35.1 100% 30 NA 29.43 997.2
12:53 am EST N 10.4 1.75 Fog/Mist -- 35.0 35.1 100% 27 NA 29.43 997.2
11:53 pm EST NE 5.8 4.00 Fog/Mist -- 36.0 35.1 97% 31 NA 29.46 998.1
10:53 pm EST N 8.1 10.00 Overcast 00.01 36.0 35.1 97% 30 NA 29.48 998.7
9:53 pm EST NE 6.9 4.00 Light Rain Fog/Mist 00.04 36.0 35.1 97% 30 NA 29.50 999.6
8:53 pm EST NE 5.8 2.00 Light Rain Fog/Mist 00.02 36.0 35.1 97% 31 NA 29.50 999.7
7:53 pm EST NE 4.6 2.00 Light Rain Fog/Mist 00.05 36.0 35.1 97% 32 NA 29.53 1000.5
6:53 pm EST NE 5.8 2.00 Light Drizzle Fog/Mist Trace 36.0 35.1 97% 31 NA 29.55 1001.1
5:53 pm EST NE 4.6 2.00 Light Rain Fog/Mist 00.04 36.0 35.1 97% 32 NA 29.56 1001.7
4:53 pm EST NE 5.8 2.00 Light Rain Fog/Mist -- 36.0 35.1 97% 31 NA 29.57 1002.0
3:53 pm EST E 6.9 2.00 Light Rain Fog/Mist -- 36.0 35.1 97% 30 NA 29.59 1002.5
2:53 pm EST E 9.2 4.00 Light Rain Fog/Mist -- 37.0 34.0 89% 30 NA 29.61 1003.4
1:53 pm EST E 5.8 4.00 Light Rain Fog/Mist -- 36.0 34.0 93% 31 NA 29.66 1005.0
12:53 pm EST E 5.8 3.00 Rain Fog/Mist -- 36.0 34.0 93% 31 NA 29.71 1006.6

Regional Weather Observation


Bellaire, Antrim County Airport, MI (KACB)

Fog/Mist
22.0 F

Frankfort, Frankfort Dow Memorial Field Airport, MI (KFKS)

Fog/Mist
27.0 F

Charlevoix, Charlevoix Municipal Airport, MI (KCVX)

Overcast
21.0 F

Wexford County Airport, MI (KCAD)

Unknown Precip
23.0 F

Manistee County - Blacker Airport, MI (KMBL)

Light Snow Fog/Mist
27.0 F

Beaver Island, Beaver Island Airport, MI (KSJX)

Overcast
19.0 F

Advertise Here